Location: Newark
(25.0000°N, 73.5000°E)
Time: 17:09:41
(UTC+00:00)

N. Korean satellite - Visible Passes

Search period start: 20 June 2021 00:00
Search period end: 30 June 2021 00:00
Orbit: 450 x 500 km, 97.2° (Epoch: 19 June)

Date Brightness Start Highest point End Pass type
(mag) Time Alt. Az. Time Alt. Az. Time Alt. Az.
20 Jun 9.5 23:27:28 10° ENE 23:29:31 14° E 23:31:34 10° SE visible
23 Jun 9.2 23:38:05 10° NE 23:40:55 21° E 23:43:44 10° SSE visible
26 Jun 8.6 23:48:59 10° NE 23:52:15 31° E 23:55:32 10° SSE visible
27 Jun 9.7 23:23:13 10° ENE 23:24:53 13° E 23:26:32 10° ESE visible
